This demonstration page uses our WeatherBlox Daily Observations layout. Learn more.

Hourly Observations for July 31, 2017

Temp ( °F °C ) Dew Point ( °F °C ) Humidity (%) Winds ( mph kmh ) Pressure ( in mb ) Visibility ( mi km ) Precip ( " mm )
12:54 am 00:54 Mostly Clear 71 21.7 63 17.2 76 76 SW 3 6 30.16 1021 10 16.0934 0 0
1:54 am 01:54 Clear 69 20.6 63 17.2 81 81 Calm 30.15 1021 10 16.0934 0 0
2:54 am 02:54 Clear 66 18.9 63 17.2 90 90 Calm 30.14 1021 10 16.0934 0 0
3:54 am 03:54 Clear 67 19.4 62 16.7 84 84 S 5 7 30.14 1021 10 16.0934 0 0
4:54 am 04:54 Clear 66 18.9 62 16.7 87 87 Calm 30.13 1020 10 16.0934 0 0
5:54 am 05:54 Mostly Clear 64 17.8 61 16.1 90 90 Calm 30.13 1020 10 16.0934 0 0
6:54 am 06:54 Mostly Cloudy 64 17.8 61 16.1 90 90 Calm 30.14 1021 10 16.0934 0 0
7:54 am 07:54 Cloudy 69 20.6 63 17.2 81 81 Calm 30.15 1021 10 16.0934 0 0
8:54 am 08:54 Mostly Cloudy 72 22.2 64 17.8 76 76 Calm 30.16 1021 10 16.0934 0 0
9:54 am 09:54 Mostly Cloudy 76 24.4 63 17.2 64 64 SSW 5 7 30.16 1021 10 16.0934 0 0
10:54 am 10:54 Partly Cloudy 78 25.6 63 17.2 60 60 VRB 5 7 30.16 1021 N/A 0 0
11:54 am 11:54 Cloudy 77 25 61 16.1 58 58 SSW 7 11 30.16 1021 N/A 0 0
12:54 pm 12:54 Partly Cloudy 80 26.7 62 16.7 54 54 SW 6 9 30.14 1021 10 16.0934 0 0
1:54 pm 13:54 Cloudy 79 26.1 60 15.6 52 52 SSW 6 9 30.14 1021 10 16.0934 0 0
2:54 pm 14:54 Cloudy 81 27.2 62 16.7 53 53 S 5 7 30.13 1020 10 16.0934 0 0
3:54 pm 15:54 Partly Cloudy 82 27.8 62 16.7 51 51 VRB 5 7 30.11 1020 10 16.0934 0 0
4:54 pm 16:54 Cloudy 80 26.7 62 16.7 54 54 ESE 6 9 30.1 1019 10 16.0934 0 0
5:54 pm 17:54 Cloudy 80 26.7 63 17.2 56 56 E 7 11 30.09 1019 10 16.0934 0 0
6:54 pm 18:54 Cloudy 79 26.1 64 17.8 60 60 SSW 6 9 30.09 1019 10 16.0934 0 0
7:54 pm 19:54 Mostly Sunny 78 25.6 64 17.8 62 62 SSW 5 7 30.08 1019 10 16.0934 0 0
8:54 pm 20:54 Partly Cloudy 75 23.9 64 17.8 69 69 S 5 7 30.08 1019 10 16.0934 0 0
9:54 pm 21:54 Mostly Clear 74 23.3 62 16.7 67 67 SSE 5 7 30.09 1019 10 16.0934 0 0
10:54 pm 22:54 Clear 71 21.7 63 17.2 76 76 S 6 9 30.08 1019 N/A 0 0
11:54 pm 23:54 Clear 72 22.2 63 17.2 73 73 SSW 3 6 30.1 1019 N/A 0 0

Powered by AerisWeather